Location: Waco, TX
(31.5480°N, 97.1670°W)
Time: 07:07:32
(UTC-05:00)

ISS - Pass Details

Date: 13 March 2018
Orbit: 403 x 407 km, 51.6° (Epoch: 26 June)

Event Time Altitude Azimuth Distance (km) Brightness Sun altitude
Rises 09:37:30 0° 304° (NW) 2,330 -0.5 23.5°
Reaches altitude 10° 09:39:44 10° 294° (WNW) 1,464 -1.5 23.9°
Maximum altitude 09:42:40 30° 231° (SW) 744 -2.6 24.5°
Drops below altitude 10° 09:45:35 10° 167° (SSE) 1,450 -0.5 25.1°
Sets 09:47:47 0° 156° (SSE) 2,303 0.6 25.5°
